Location: Little Arabia
(41.4620°N, 81.7687°W)
Time: 16:39:33
(UTC+00:00)

Meteor 2-10 Rocket - Visible Passes

Search period start: 15 June 2021 00:00
Search period end: 25 June 2021 00:00
Orbit: 734 x 885 km, 81.2° (Epoch: 14 June)

Date Brightness Start Highest point End Pass type
(mag) Time Alt. Az. Time Alt. Az. Time Alt. Az.
15 Jun 5.0 03:24:01 10° NNE 03:27:56 22° ENE 03:29:25 19° E visible
15 Jun 4.1 05:05:25 10° NNW 05:10:10 40° W 05:10:33 40° WSW visible
16 Jun 5.4 03:00:20 10° NNE 03:03:21 16° ENE 03:05:18 13° E visible
16 Jun 3.6 04:40:52 10° NNW 04:45:53 59° W 04:46:26 55° SW visible
17 Jun 5.7 02:37:27 10° NE 02:38:43 11° ENE 02:39:59 10° ENE visible
17 Jun 3.3 04:16:26 10° N 04:21:32 85° W 04:22:19 64° S visible
18 Jun 3.5 03:52:06 10° N 03:57:10 67° E 03:58:13 52° SE visible
18 Jun 5.7 05:36:23 10° WNW 05:38:30 13° W 05:39:22 12° W visible
19 Jun 3.9 03:27:52 10° N 03:32:44 46° ENE 03:34:08 36° ESE visible
19 Jun 5.3 05:10:57 10° NW 05:14:21 18° W 05:15:17 18° W visible
20 Jun 4.4 03:03:44 10° N 03:08:16 32° ENE 03:10:05 25° ESE visible
20 Jun 4.9 04:46:00 10° NW 04:50:09 26° W 04:51:13 24° WSW visible
21 Jun 4.9 02:39:45 10° NNE 02:43:45 23° ENE 02:46:01 17° ESE visible
21 Jun 4.4 04:21:17 10° NNW 04:25:54 37° W 04:27:10 32° SW visible
22 Jun 5.3 02:16:00 10° NNE 02:19:10 17° ENE 02:21:59 11° ESE visible
22 Jun 3.8 03:56:43 10° NNW 04:01:37 54° W 04:03:08 39° SSW visible
23 Jun 5.5 01:52:51 10° NE 01:54:34 12° ENE 01:56:16 10° E visible
23 Jun 3.4 03:32:15 10° NNW 03:37:17 80° W 03:39:07 40° S visible
24 Jun 3.4 03:07:53 10° N 03:12:55 72° E 03:15:06 34° SSE visible
24 Jun 5.9 04:52:34 10° WNW 04:54:14 12° W 04:55:54 10° WSW visible
